FW1711 Weather Reports


time (UTC)temp
F
wind
direction
speed
knots
gust
knots
rain 1hr
in
rain 24hr
in
rain mn
in
humidity
%
barometer
mb
20260506131514 70 225 0.9 2.6 0.00 0.83 0.13 57 989.0
20260506130008 70 330 0.0 7.0 0.00 0.83 0.13 58 989.3
20260506124507 70 309 0.0 1.7 0.00 0.83 0.13 56 989.4
20260506123007 71 318 0.0 3.5 0.00 0.83 0.13 56 989.4
20260506121507 71 317 0.0 1.7 0.00 0.83 0.13 56 989.4
20260506120006 72 336 0.9 5.2 0.00 0.83 0.13 51 989.4
20260506114503 71 11 0.0 4.3 0.00 0.83 0.13 54 989.2
20260506113002 70 308 1.7 4.3 0.00 0.83 0.13 57 989.4
20260506111502 70 328 0.0 3.5 0.00 0.83 0.13 56 989.4
20260506110002 71 316 1.7 8.7 0.00 0.83 0.13 54 989.5
20260506104617 71 311 0.9 5.2 0.00 0.83 0.13 55 989.6
20260506103057 71 310 0.9 4.3 0.00 0.83 0.13 62 989.5
20260506101602 70 341 0.0 1.7 0.00 0.83 0.13 60 989.4
20260506100053 69 327 0.9 4.3 0.00 0.83 0.13 60 989.5
20260506094556 68 311 0.9 7.0 0.00 0.83 0.13 66 989.4
20260506093053 66 355 0.9 5.2 0.00 0.83 0.13 66 989.3
20260506091546 66 15 1.7 5.2 0.00 0.83 0.13 66 989.2
20260506090045 66 314 1.7 5.2 0.00 0.83 0.13 67 989.1
20260506084545 65 339 0.0 8.7 0.00 0.83 0.13 72 988.9
20260506083041 65 229 0.0 7.8 0.00 0.83 0.13 72 988.9
20260506081539 65 342 0.9 7.0 0.00 0.83 0.13 71 988.8
20260506073037 63 333 0.0 4.3 0.00 0.83 0.13 79 988.4
20260506071530 63 335 1.7 7.0 0.00 0.83 0.13 80 988.7
20260506061515 58 333 0.0 4.3 0.00 0.84 0.13 91 988.7
20260506044509 53 330 0.0 0.9 0.00 0.84 0.13 89 988.3
20260506043006 53 330 0.0 0.9 0.00 0.84 0.13 89 988.2
20260506041508 53 360 0.0 0.0 0.00 0.84 0.13 88 988.2
20260506040004 53 360 0.0 0.9 0.00 0.84 0.13 88 988.3
20260506034504 53 329 0.0 0.0 0.00 0.84 0.13 88 988.2
20260506033004 53 329 0.0 0.0 0.00 0.84 0.13 88 988.3
20260506031502 53 329 0.0 0.9 0.00 0.84 0.13 88 988.3
20260506030100 54 327 0.0 0.0 0.00 0.84 0.13 88 988.4
20260506024600 54 328 0.0 0.9 0.00 0.84 0.13 88 988.4
20260506023101 54 329 0.0 0.0 0.00 0.84 0.13 87 988.6
20260506021559 54 328 0.0 0.0 0.00 0.84 0.13 87 988.6
20260506020056 54 329 0.0 0.0 0.00 0.84 0.13 87 988.6
20260506014558 54 329 0.0 0.0 0.00 0.84 0.13 87 988.8
20260506013053 55 329 0.0 0.9 0.00 0.84 0.13 87 989.0
20260506011551 55 330 0.0 2.6 0.00 0.84 0.13 88 989.0
20260506010050 55 331 0.0 2.6 0.00 0.84 0.13 88 989.2
20260506004550 56 326 0.0 0.9 0.00 0.84 0.13 88 988.9
20260506003049 56 319 0.0 2.6 0.00 0.84 0.13 88 988.7
20260506001607 56 319 0.0 3.5 0.01 0.84 0.13 87 988.7
20260506000049 56 319 0.0 0.9 0.03 0.84 0.13 87 989.0
20260505234550 56 319 0.0 0.0 0.06 0.84 0.13 88 989.1
20260505233053 56 319 0.0 0.0 0.09 0.84 0.13 88 988.9
20260505231551 56 319 0.0 0.9 0.09 0.83 0.13 88 989.0
20260505230041 56 319 0.0 0.9 0.09 0.80 0.09 88 989.6
20260505224542 56 319 0.0 0.9 0.09 0.78 0.07 87 989.8
20260505223043 56 258 0.0 2.6 0.10 0.75 0.04 87 990.1
20260505221544 56 326 0.0 2.6 0.21 0.74 0.03 86 989.8
20260505220039 56 320 0.9 7.8 0.38 0.71 0.00 85 990.1
20260505214551 56 296 1.7 9.6 0.38 0.69 0.69 83 990.1
20260505213048 57 324 0.9 7.0 0.54 0.65 0.65 81 990.2
20260505211530 59 9 0.0 7.0 0.41 0.51 0.51 80 990.5
20260505210031 61 331 0.0 0.9 0.28 0.33 0.33 83 989.8
20260505204532 61 331 0.0 0.0 0.31 0.31 0.31 82 989.7
20260505203028 62 134 0.0 0.0 0.10 0.11 0.11 81 989.8
20260505201542 62 134 0.0 0.0 0.09 0.10 0.10 79 989.4
20260505200028 62 134 0.0 0.0 0.04 0.05 0.05 78 989.7
20260505194524 62 132 0.0 0.0 0.00 0.01 0.01 76 989.8
20260505193040 63 132 0.0 0.9 0.00 0.01 0.01 76 989.5
20260505191524 63 123 0.0 0.9 0.00 0.01 0.01 75 989.6
20260505190030 63 123 0.0 0.9 0.00 0.01 0.01 75 989.5
20260505184525 63 165 0.0 0.9 0.00 0.01 0.01 74 989.7
20260505183036 64 165 0.0 0.0 0.00 0.01 0.01 74 989.8
20260505181521 64 165 0.0 0.0 0.00 0.01 0.01 73 990.0
20260505180031 65 165 0.0 0.0 0.00 0.01 0.01 72 990.1
20260505174527 65 165 0.0 0.9 0.00 0.01 0.01 71 990.1
20260505173017 66 165 0.0 0.9 0.00 0.01 0.01 70 990.2
20260505171526 66 134 0.0 1.7 0.00 0.01 0.01 68 990.1
20260505170015 67 134 0.0 0.9 0.00 0.01 0.01 68 990.2
20260505164528 67 134 0.0 1.7 0.00 0.01 0.01 67 990.4
20260505163018 67 126 0.0 0.0 0.00 0.01 0.01 67 990.3
20260505161512 68 126 0.0 0.0 0.00 0.01 0.01 68 990.5
20260505153011 69 126 0.0 0.0 0.00 0.01 0.01 66 990.6
20260505151508 69 126 0.0 0.0 0.00 0.01 0.01 66 990.7